TimeEST,TemperatureF,Dew PointF,Humidity,Sea Level PressureIn,VisibilityMPH,Wind Direction,Wind SpeedMPH,Gust SpeedMPH,PrecipitationIn,Events,Conditions,WindDirDegrees,DateUTC
12:55 AM,25.7,25.2,98,30.01,5.0,Variable,5.8,-,N/A,,Overcast,0,2013-01-29 05:55:00
1:04 AM,24.8,24.8,100,30.01,4.0,North,5.8,-,N/A,,Light Freezing Drizzle,10,2013-01-29 06:04:00
2:26 AM,24.8,24.8,100,30.04,4.0,North,4.6,-,N/A,,Overcast,360,2013-01-29 07:26:00
2:55 AM,25.7,25.2,98,30.04,5.0,North,3.5,-,N/A,,Overcast,360,2013-01-29 07:55:00
3:19 AM,26.6,24.8,93,30.05,6.0,North,5.8,-,N/A,Snow,Light Snow,10,2013-01-29 08:19:00
3:30 AM,26.6,24.8,93,30.04,4.0,NNE,4.6,-,N/A,Snow,Light Snow,20,2013-01-29 08:30:00
3:48 AM,26.6,24.8,93,30.05,5.0,North,4.6,-,N/A,Snow,Light Snow,360,2013-01-29 08:48:00
3:55 AM,26.1,25.7,99,30.05,6.0,North,5.8,-,0.00,Snow,Light Snow,360,2013-01-29 08:55:00
4:05 AM,26.6,24.8,93,30.05,6.0,North,5.8,-,N/A,Snow,Light Snow,10,2013-01-29 09:05:00
4:15 AM,26.6,24.8,93,30.06,7.0,North,5.8,-,N/A,,Overcast,10,2013-01-29 09:15:00
4:44 AM,26.6,24.8,93,30.07,10.0,North,5.8,-,N/A,,Overcast,10,2013-01-29 09:44:00
4:52 AM,26.6,24.8,93,30.07,10.0,North,4.6,-,N/A,,Overcast,10,2013-01-29 09:52:00
4:55 AM,25.9,25.2,97,30.07,10.0,North,4.6,-,0.00,,Overcast,10,2013-01-29 09:55:00
5:02 AM,26.6,24.8,93,30.08,10.0,North,4.6,-,N/A,,Overcast,360,2013-01-29 10:02:00
5:29 AM,26.6,24.8,93,30.09,10.0,North,4.6,-,N/A,,Overcast,10,2013-01-29 10:29:00
5:55 AM,25.9,25.0,96,30.09,10.0,Calm,Calm,-,N/A,,Overcast,0,2013-01-29 10:55:00
6:48 AM,26.6,24.8,93,30.11,10.0,North,4.6,-,N/A,,Overcast,360,2013-01-29 11:48:00
6:55 AM,25.9,25.0,96,30.12,10.0,North,4.6,-,N/A,,Overcast,360,2013-01-29 11:55:00
7:10 AM,26.6,24.8,93,30.13,10.0,North,4.6,-,N/A,,Overcast,360,2013-01-29 12:10:00
7:55 AM,25.9,24.6,95,30.14,10.0,NNE,3.5,-,N/A,,Overcast,30,2013-01-29 12:55:00
8:55 AM,26.4,24.6,93,30.14,10.0,NNE,4.6,-,N/A,,Overcast,20,2013-01-29 13:55:00
11:03 AM,30.2,26.6,86,30.18,10.0,Calm,Calm,-,N/A,,Overcast,0,2013-01-29 16:03:00
11:18 AM,30.2,26.6,86,30.17,10.0,Calm,Calm,-,N/A,,Overcast,0,2013-01-29 16:18:00
11:23 AM,30.2,26.6,86,30.17,10.0,Calm,Calm,-,N/A,,Overcast,0,2013-01-29 16:23:00
11:29 AM,30.2,28.4,93,30.17,10.0,Calm,Calm,-,N/A,,Overcast,0,2013-01-29 16:29:00
11:38 AM,30.2,28.4,93,30.18,10.0,Calm,Calm,-,N/A,,Overcast,0,2013-01-29 16:38:00
11:55 AM,30.6,28.0,90,30.17,10.0,Calm,Calm,-,N/A,,Overcast,0,2013-01-29 16:55:00
12:55 PM,32.5,30.2,91,30.14,10.0,Calm,Calm,-,N/A,,Overcast,0,2013-01-29 17:55:00
12:59 PM,32.0,30.2,93,30.14,10.0,Calm,Calm,-,N/A,,Overcast,0,2013-01-29 17:59:00
3:55 PM,32.7,29.7,88,30.15,10.0,Calm,Calm,-,N/A,,Overcast,0,2013-01-29 20:55:00
4:55 PM,32.4,30.7,94,30.15,10.0,NE,3.5,-,N/A,,Overcast,40,2013-01-29 21:55:00
5:10 PM,32.0,30.2,93,30.15,10.0,Calm,Calm,-,N/A,,Overcast,0,2013-01-29 22:10:00
5:32 PM,32.0,30.2,93,30.16,10.0,Calm,Calm,-,N/A,Rain,Light Rain,0,2013-01-29 22:32:00
5:36 PM,32.0,30.2,93,30.17,10.0,Calm,Calm,-,N/A,Rain,Light Rain,0,2013-01-29 22:36:00
5:55 PM,32.2,31.5,97,30.16,10.0,Calm,Calm,-,0.00,Rain,Light Rain,0,2013-01-29 22:55:00
6:31 PM,32.0,32.0,100,30.16,10.0,Calm,Calm,-,N/A,,Overcast,0,2013-01-29 23:31:00
6:55 PM,32.2,30.9,95,30.15,10.0,Calm,Calm,-,0.00,,Overcast,0,2013-01-29 23:55:00
7:53 PM,32.0,32.0,100,30.18,9.0,Calm,Calm,-,N/A,,Overcast,0,2013-01-30 00:53:00
7:55 PM,32.2,31.6,98,30.18,9.0,Calm,Calm,-,N/A,,Overcast,0,2013-01-30 00:55:00
8:04 PM,32.0,32.0,100,30.19,8.0,Calm,Calm,-,N/A,,Overcast,0,2013-01-30 01:04:00
8:07 PM,32.0,32.0,100,30.19,8.0,Calm,Calm,-,N/A,,Overcast,0,2013-01-30 01:07:00
8:31 PM,32.0,32.0,100,30.16,5.0,ESE,3.5,-,N/A,Rain,Light Freezing Rain,110,2013-01-30 01:31:00
8:55 PM,32.4,31.8,98,30.15,5.0,Calm,Calm,-,0.01,Rain,Light Freezing Rain,0,2013-01-30 01:55:00
9:09 PM,32.0,32.0,100,30.13,4.0,Calm,Calm,-,N/A,Rain,Light Rain,0,2013-01-30 02:09:00
9:26 PM,32.0,32.0,100,30.15,3.0,Calm,Calm,-,N/A,Rain,Light Rain,0,2013-01-30 02:26:00
9:30 PM,32.0,32.0,100,30.16,3.0,Calm,Calm,-,N/A,Rain,Light Rain,0,2013-01-30 02:30:00
9:32 PM,32.0,32.0,100,30.15,2.5,Calm,Calm,-,N/A,Rain,Light Rain,0,2013-01-30 02:32:00
9:39 PM,32.0,32.0,100,30.15,2.0,Calm,Calm,-,N/A,Rain,Light Rain,0,2013-01-30 02:39:00
9:44 PM,32.0,32.0,100,30.15,1.8,SW,3.5,-,N/A,Rain,Light Rain,220,2013-01-30 02:44:00
9:51 PM,32.0,32.0,100,30.14,1.8,South,4.6,-,N/A,Rain,Light Rain,190,2013-01-30 02:51:00
9:55 PM,32.2,31.6,98,30.13,1.8,South,5.8,-,0.06,Rain,Light Rain,170,2013-01-30 02:55:00
9:58 PM,32.0,32.0,100,30.14,1.5,South,5.8,-,N/A,Rain,Rain,180,2013-01-30 02:58:00
10:03 PM,32.0,32.0,100,30.14,1.5,South,4.6,-,N/A,Rain,Rain,190,2013-01-30 03:03:00
10:09 PM,32.0,32.0,100,30.14,1.5,Calm,Calm,-,N/A,Rain,Light Rain,0,2013-01-30 03:09:00
10:12 PM,32.0,32.0,100,30.14,1.5,SSW,3.5,-,N/A,Rain,Light Rain,200,2013-01-30 03:12:00
10:15 PM,32.0,32.0,100,30.14,1.8,SW,4.6,-,N/A,Rain,Light Rain,220,2013-01-30 03:15:00
10:18 PM,32.0,32.0,100,30.14,1.8,Calm,Calm,-,N/A,Rain,Light Rain,0,2013-01-30 03:18:00
10:21 PM,32.0,32.0,100,30.13,2.0,Calm,Calm,-,N/A,Rain,Light Rain,0,2013-01-30 03:21:00
10:22 PM,32.0,32.0,100,30.12,1.8,Calm,Calm,-,N/A,Rain,Light Rain,0,2013-01-30 03:22:00
10:23 PM,32.0,32.0,100,30.12,1.8,Calm,Calm,-,N/A,Rain,Light Rain,0,2013-01-30 03:23:00
10:28 PM,32.0,32.0,100,30.13,1.5,Calm,Calm,-,N/A,Rain,Light Rain,0,2013-01-30 03:28:00
10:29 PM,32.0,32.0,100,30.12,1.5,Calm,Calm,-,N/A,Rain,Light Rain,0,2013-01-30 03:29:00
10:36 PM,32.0,32.0,100,30.12,1.2,SSW,3.5,-,N/A,Rain,Light Rain,210,2013-01-30 03:36:00
10:37 PM,32.0,32.0,100,30.12,1.2,SSW,3.5,-,N/A,Rain,Light Rain,210,2013-01-30 03:37:00
10:38 PM,32.0,32.0,100,30.12,1.2,SSW,3.5,-,N/A,Rain,Light Rain,210,2013-01-30 03:38:00
10:39 PM,32.0,32.0,100,30.12,1.5,SSW,3.5,-,N/A,Rain,Light Rain,210,2013-01-30 03:39:00
10:41 PM,32.0,32.0,100,30.12,1.5,SW,3.5,-,N/A,,Overcast,220,2013-01-30 03:41:00
10:47 PM,32.0,32.0,100,30.13,1.5,Calm,Calm,-,N/A,Rain,Light Rain,0,2013-01-30 03:47:00
10:55 PM,32.4,31.8,98,30.13,1.5,Calm,Calm,-,0.10,Rain,Light Rain,0,2013-01-30 03:55:00
11:03 PM,32.0,32.0,100,30.13,1.8,Calm,Calm,-,N/A,Rain,Light Rain,0,2013-01-30 04:03:00
11:07 PM,32.0,32.0,100,30.13,2.0,Calm,Calm,-,N/A,Rain,Light Rain,0,2013-01-30 04:07:00
11:22 PM,32.0,32.0,100,30.14,1.8,North,3.5,-,N/A,Rain,Light Rain,350,2013-01-30 04:22:00
11:29 PM,32.0,32.0,100,30.14,1.5,Calm,Calm,-,N/A,Rain,Light Rain,0,2013-01-30 04:29:00
11:33 PM,32.0,32.0,100,30.14,1.2,Calm,Calm,-,N/A,,Overcast,0,2013-01-30 04:33:00
11:35 PM,32.0,32.0,100,30.14,1.2,Calm,Calm,-,N/A,,Overcast,0,2013-01-30 04:35:00
11:41 PM,32.0,32.0,100,30.14,1.5,Calm,Calm,-,N/A,,Overcast,0,2013-01-30 04:41:00
11:53 PM,32.0,32.0,100,30.13,1.2,Calm,Calm,-,N/A,,Overcast,0,2013-01-30 04:53:00
11:55 PM,32.5,32.0,98,30.13,1.2,Calm,Calm,-,0.02,,Overcast,0,2013-01-30 04:55:00
11:59 PM,32.0,32.0,100,30.13,1.0,Calm,Calm,-,N/A,,Mist,0,2013-01-30 04:59:00